This is the latest recevied weather packets stored in our database for station/object IK1YPD-13. If no packets are shown the sender has not sent any weather packets the latest 1 day(s).
| Time | Temp. | Humidity | Pressure | Rain* | Wind** | Luminosity | Snow |
|---|---|---|---|---|---|---|---|
| 1778040535 | 16.67° C | 85% | 1005 hPa | - | - | - | - |
| 1778039634 | 16.67° C | 86% | 1006 hPa | - | - | - | - |
| 1778038734 | 16.11° C | 84% | 1006 hPa | - | - | - | - |
| 1778037834 | 16.11° C | 84% | 1005 hPa | - | - | - | - |
| 1778036934 | 16.11° C | 85% | 1006 hPa | - | - | - | - |
| 1778036034 | 15.56° C | 87% | 1006 hPa | - | - | - | - |
| 1778035134 | 15° C | 87% | 1006 hPa | - | - | - | - |
| 1778034234 | 15° C | 86% | 1006 hPa | - | - | - | - |
| 1778033334 | 15° C | 85% | 1006 hPa | - | - | - | - |
| 1778032434 | 15° C | 85% | 1006 hPa | - | - | - | - |
| 1778031534 | 15° C | 86% | 1006 hPa | - | - | - | - |
| 1778030634 | 14.44° C | 85% | 1006 hPa | - | - | - | - |
| 1778029734 | 15° C | 84% | 1006 hPa | - | - | - | - |
| 1778028834 | 15° C | 84% | 1006 hPa | - | - | - | - |
| 1778027934 | 15° C | 84% | 1007 hPa | - | - | - | - |
| 1778027034 | 15° C | 84% | 1007 hPa | - | - | - | - |
| 1778018933 | 14.44° C | 83% | 1008 hPa | - | - | - | - |
| 1778017133 | 13.89° C | 82% | 1009 hPa | - | - | - | - |
| 1778015333 | 13.89° C | 82% | 1009 hPa | - | - | - | - |
| 1778014433 | 13.89° C | 81% | 1009 hPa | - | - | - | - |
| 1778006332 | 16.67° C | 79% | 1009 hPa | - | - | - | - |
| 1778005432 | 16.67° C | 77% | 1009 hPa | - | - | - | - |
| 1778003632 | 17.22° C | 74% | 1009 hPa | - | - | - | - |
| 1778002732 | 17.78° C | 73% | 1009 hPa | - | - | - | - |
| 1778001832 | 17.78° C | 73% | 1009 hPa | - | - | - | - |
* Rain since midnight (hover to see other rain measurements)
** Current wind speed in m/s (hover to see current wind gust speed)